Location: ?????
(30.2541°N, 31.0910°E)
Time: 02:09:39
(UTC+00:00)

Cosmos 407 Rocket - Pass Details

Date: 27 September 2022
Orbit: 742 x 786 km, 74.0° (Epoch: 01 December)

Event Time Altitude Azimuth Distance (km) Brightness Sun altitude
Rises 01:51:22 0° 349° (N) 3,260 6.8 -25.5°
Reaches altitude 10° 01:53:47 10° 353° (N) 2,334 6.1 -25.0°
Maximum altitude 01:59:01 57° 72° (ENE) 921 4.1 -23.9°
Drops below altitude 10° 02:04:14 10° 151° (SSE) 2,336 6.2 -22.8°
Sets 02:06:39 0° 155° (SSE) 3,261 6.9 -22.3°
